Regional Weather Roundup
Issued by NWS

Home | Current Version | Previous Version | Text Only | Print | Product List | Glossary On
Versions: 1 2 3 4 5 6 7 8 9 10 11 12 13 14 15 16 17 18 19 20 21 22 23 24 25 26 27 28 29 30 31 32 33 34 35 36 37 38 39 40 41 42 43 44 45 46 47 48 49 50
000
ASUS45 KBOU 051510
RWRCO

WEATHER ROUNDUP FOR COLORADO
NATIONAL WEATHER SERVICE DENVER/BOULDER CO
900 AM MDT SUN JUL 05 2015

NOTE: "FAIR" INDICATES FEW OR NO CLOUDS BELOW 12000 FEET WITH NO
SIGNIFICANT WEATHER AND/OR OBSTRUCTIONS TO VISIBILITY.

COZ001>005-013-030-031-051600-
...NORTHWEST COLORADO...

CITY           SKY/WX    TMP DP  RH WIND       PRES   REMARKS
CRAIG          CLOUDY    66  57  72 NE3       30.20R
HAYDEN         CLOUDY    63  48  59 NE5       30.21S
MEEKER         CLOUDY    66  54  65 CALM      30.20S
MOUNT WERNER   NOT AVBL
STEAMBOAT SPGS CLOUDY    61  49  63 CALM      30.23S
WALDEN         MOSUNNY   64  46  52 CALM      30.27S
$$

COZ006>008-011-051600-
...WEST CENTRAL VALLEYS...

CITY           SKY/WX    TMP DP  RH WIND       PRES   REMARKS
GRAND JUNCTION CLOUDY    67  62  84 W7        30.12S
MONTROSE       CLOUDY    67  59  75 N5        30.19S
EAGLE          PTSUNNY   66  50  55 CALM      30.22F
RIFLE          CLOUDY    67  58  72 CALM      30.15S
DELTA          CLOUDY    72  59  63 CALM      30.15R
NUCLA          PTSUNNY   64  57  77 CALM      30.23S
$$

COZ017>023-064>068-051600-
...SOUTHWEST COLORADO...

CITY           SKY/WX    TMP DP  RH WIND       PRES   REMARKS
DURANGO        CLOUDY    60  57  89 CALM      30.25R
CORTEZ         CLOUDY    67  57  70 CALM      30.20R
PAGOSA SPRINGS CLOUDY    62  52  69 CALM      30.30S
TELLURIDE      CLOUDY    55  51  87 CALM      30.40R
WOLF CREEK PAS NOT AVBL
$$

COZ009-010-012-014-032>034-037-058>063-051600-
...CENTRAL COLORADO...

CITY           SKY/WX    TMP DP  RH WIND       PRES   REMARKS
ASPEN          PTSUNNY   64  51  62 VRB3      30.29S
BUENA VISTA    PTSUNNY   66  46  49 CALM      30.26F
COPPER MTN     PTSUNNY   54  45  71 W10       30.57S
BERTHOUD PASS  FAIR      45  36  70 N7G21     30.60S
COTTONWOOD PAS NOT AVBL
GUNNISON       PTSUNNY   61  46  59 N5        30.31F
KREMMLING      PTSUNNY   61  43  51 SW5       30.28F
LEADVILLE      PTSUNNY   59  45  59 N12       30.39S
MONARCH PASS   PTSUNNY   46  43  87 W15       30.65F
SALIDA         PTSUNNY   69  50  50 N7        30.30S
SUNLIGHT       CLOUDY    54  50  87 CALM      30.50F
WILKERSON PASS SUNNY     55  37  50 NW5       30.51F
$$

COZ069>075-051600-
...SAN LUIS VALLEY/SANGRE DE CRISTO MOUNTAINS...

CITY           SKY/WX    TMP DP  RH WIND       PRES   REMARKS
ALAMOSA        PTSUNNY   65  47  52 CALM      30.26F
LA VETA PASS   MOSUNNY   52  45  76 MISG      30.41S
SAGUACHE       MOSUNNY   63  48  59 CALM      30.30F
$$

COZ035-036-038>040-051600-
...NORTHERN COLORADO FRONT RANGE...

CITY           SKY/WX    TMP DP  RH WIND       PRES   REMARKS
DENVER INTL AP MOSUNNY   81  51  35 SW7       30.00F
DMNS CITY PARK   N/A     78  54  42 S7        29.99F
AURORA         MOSUNNY   78  54  43 SW6       30.03F
FRONT RANGE AP MOSUNNY   81  57  44 SW7       30.02S
ERIE MUNI ARPT SUNNY     82  49  31 S7        29.98S
BOULDER MUN AP SUNNY     81  50  34 CALM      29.98F
CENTENNIAL     MOSUNNY   78  51  38 SW7       30.04F
BROOMFIELD     MOSUNNY   81  52  36 VRB3      30.03S
FORT COLLINS   MOSUNNY   75  55  50 N5        29.98F
LONGMONT       MOSUNNY   83  55  38 E3        29.98F
$$

COZ041-046-047-076>085-087-088-051600-
...PIKES PEAK/PALMER DIVIDE AND SOUTHERN FOOTHILLS...

CITY           SKY/WX    TMP DP  RH WIND       PRES   REMARKS
COLO. SPRINGS  PTSUNNY   80  48  32 N3        30.07F
A. F. ACADEMY  SUNNY     77  51  40 N7        30.09F
ELLICOTT       SUNNY    N/A N/A N/A N3        30.05F
FALCON         SUNNY     78  46  31 NW5       30.13F
FORT CARSON    SUNNY     76  54  47 NW7       30.04S
LIMON          SUNNY     77  55  46 CALM      30.00F
MONUMENT HILL  SUNNY     72  46  40 W5        30.14F
TRINIDAD       MOSUNNY   78  53  41 W8        30.06F
$$

COZ042>045-048>051-090-091-051600-
...NORTHEAST COLORADO...

CITY           SKY/WX    TMP DP  RH WIND       PRES   REMARKS
GREELEY ARPT   MOSUNNY   75  55  50 CALM      29.97S
AKRON          SUNNY     81  55  40 SW9       29.94S
BURLINGTON     SUNNY     82  59  45 SW7       29.92F
WRAY           SUNNY     85  58  39 SW5       29.87F
STERLING       SUNNY     77  61  57 S6          N/A
HOLYOKE        SUNNY     81  61  50 CALM      29.87F
FORT MORGAN    SUNNY     77  53  42 W12       29.94S
$$

COZ086-089-092>099-051600-
...SOUTHEAST COLORADO...

CITY           SKY/WX    TMP DP  RH WIND       PRES   REMARKS
PUEBLO         SUNNY     78  54  43 W6        29.96F
LA JUNTA       SUNNY     79  56  45 NW6       29.93F
LAMAR          SUNNY     81  60  48 VRB5      29.90S
SPRINGFIELD      N/A     79  60  52 SW17G28   29.97F
$$



USA.gov is the U.S. government's official web portal to all federal, state and local government web resources and services.